Location: Frizzleburg
(41.0764°N, 80.4548°W)
Time: 05:23:19
(UTC+00:00)

USA 215 - Pass Details

Date: 17 November 2019
Orbit: 1101 x 1107 km, 123.0° (Epoch: 02 December)

Event Time Altitude Azimuth Distance (km) Brightness Sun altitude
Exits shadow 00:21:12 40° 34° (NE) 1,566 3.7 -26.1°
Maximum altitude 00:21:29 40° 28° (NNE) 1,562 3.8 -26.2°
Drops below altitude 10° 00:27:29 10° 322° (NW) 2,963 5.9 -27.3°
Sets 00:30:06 0° 315° (NW) 3,923 6.8 -27.8°
